Location: Ariel
(45.9570°N, 122.5700°W)
Time: 05:09:16
(UTC-07:00)

Transit 4A - Pass Details

Date: 20 July 2019
Orbit: 863 x 981 km, 66.8° (Epoch: 18 August)

Event Time Altitude Azimuth Distance (km) Brightness Sun altitude
Rises 08:01:35 0° 319° (NW) 3,692 10.7 22.3°
Reaches altitude 10° 08:06:23 10° 351° (N) 2,734 10.4 23.2°
Maximum altitude 08:08:32 12° 11° (N) 2,603 10.5 23.5°
Drops below altitude 10° 08:10:41 10° 31° (NNE) 2,717 10.9 23.9°
Sets 08:15:24 0° 63° (ENE) 3,637 12.1 24.7°
